Vertical_Velocity
-6 -7 -5 -4 -4 -6 -9 -7 -5 -3 -5 -5 -5 -3 -1 -1 -1 -1 0 2 1 0 -0 0 0 0 0 1 1 1 1 1 0 1 1 1 1 1 1 0 0 0 0 -0 -0 0 0 -0 -0 -0 0 1 1 1 0 -0 -1 -1 -2 -2 -2 -2 -2 -2 -3 -3 -3 -3 -3 -3 -1 3 6 6 3 -2 -3 -2 -0 -1 -2 -3 -2 2 6 8
-5 -5 -5 -4 -4 -6 -10 -9 -5 -1 -3 -5 -5 -4 -3 -3 -3 -3 -2 0 2 1 0 -0 -1 -1 -1 -0 0 1 1 1 1 1 2 1 1 1 0 0 0 0 0 0 0 0 1 0 0 0 0 0 0 1 1 0 0 0 0 -0 -1 -1 -1 -1 -2 -4 -5 -6 -6 -6 -5 -1 2 5 5 1 1 3 6 5 4 3 1 2 5 8
-5 -5 -5 -4 -3 -4 -9 -10 -6 -2 -1 -3 -4 -4 -3 -4 -5 -5 -4 -2 -1 0 1 0 -1 -2 -2 -2 -1 1 2 2 2 2 1 1 1 0 0 -0 -0 0 0 0 0 1 1 1 1 0 0 0 1 1 2 2 2 2 2 2 2 2 3 2 2 0 -1 -2 -3 -4 -4 -3 -2 -1 -0 0 3 7 9 8 8 8 7 5 6 5
-3 -3 -5 -4 -3 -4 -7 -8 -7 -5 -2 -3 -4 -3 -2 -3 -5 -5 -5 -4 -3 -3 -2 -1 -1 -1 -3 -3 -2 -1 1 2 1 1 1 0 0 -0 -1 -1 -0 0 0 0 0 0 1 1 1 0 0 0 0 0 1 2 2 2 2 2 2 3 3 3 4 4 5 5 5 4 3 2 0 -1 -2 -2 0 2 1 -1 0 3 5 4 3 1
-2 -2 -3 -3 -4 -6 -8 -7 -6 -5 -4 -5 -5 -5 -3 -3 -5 -6 -6 -5 -4 -4 -4 -3 -2 -1 -2 -3 -3 -2 -1 0 0 0 0 0 0 -0 -0 -0 -0 0 0 -0 -0 -0 -0 -0 0 0 -0 -0 -0 -0 0 -0 0 0 0 -0 -1 -1 -1 -1 -1 -1 0 1 2 3 4 4 4 3 1 -0 -1 -3 -6 -8 -9 -8 -7 -5 -3 -3
-3 -2 -2 -2 -5 -8 -10 -8 -6 -5 -4 -6 -6 -6 -4 -3 -4 -5 -7 -6 -5 -5 -5 -3 -2 -1 -1 -2 -3 -3 -2 -1 -1 -0 0 0 0 0 0 0 0 0 0 0 -0 0 0 0 0 0 0 0 0 0 -0 -1 -1 -1 -1 -2 -2 -2 -3 -4 -4 -5 -5 -5 -5 -5 -4 -3 -2 -1 -1 -1 -2 -4 -6 -8 -9 -10 -10 -7 -4 -3
-4 -3 -3 -3 -4 -6 -8 -8 -6 -3 -1 -4 -7 -8 -7 -4 -3 -3 -5 -5 -5 -6 -6 -5 -3 -1 0 -0 -1 -2 -3 -2 -1 -0 0 0 0 0 0 0 0 0 0 0 1 1 0 0 0 0 1 1 1 1 0 0 0 0 0 0 0 0 -1 -1 -2 -2 -3 -4 -5 -5 -6 -6 -6 -6 -5 -4 -3 -3 -4 -6 -7 -7 -5 -2 0 -0
-5 -6 -4 -4 -5 -5 -5 -7 -7 -4 2 1 -3 -8 -11 -8 -5 -4 -3 -3 -4 -5 -6 -8 -7 -4 0 2 1 -1 -3 -4 -3 -2 -2 -1 -0 0 0 0 0 0 0 0 1 1 0 -0 -0 -0 0 0 0 0 0 0 0 1 2 2 2 2 2 2 1 1 1 1 0 -0 -1 -2 -2 -2 -3 -2 -2 -2 -3 -4 -5 -5 -3 -1 1 1
-7 -9 -7 -4 -3 -3 -4 -7 -8 -6 0 4 2 -2 -8 -10 -10 -9 -7 -5 -3 -2 -2 -8 -11 -10 -4 3 4 2 -2 -3 -3 -3 -3 -2 -2 -1 -0 -0 -0 -0 0 1 1 1 0 0 0 0 0 0 -0 -0 0 -0 0 0 1 1 1 1 1 1 1 1 1 1 1 1 2 2 1 1 1 0 0 -1 -2 -3 -3 -4 -3 -2 -1 -1
-8 -8 -8 -5 -2 -1 -3 -8 -10 -7 -1 3 4 2 -1 -4 -8 -11 -14 -13 -7 -1 2 -3 -9 -13 -12 -4 2 4 1 -2 -2 0 2 0 -0 -0 0 0 -0 -0 0 1 2 2 1 1 1 1 1 1 1 1 1 0 0 1 1 1 1 0 0 -0 -0 -1 -1 -1 -0 -0 0 1 1 1 1 0 0 -0 -1 -2 -2 -2 -2 -2 -3 -3
-8 -7 -5 -5 -4 -3 -2 -8 -11 -9 -3 0 0 -1 -1 0 -1 -4 -12 -18 -15 -8 0 -1 -3 -7 -12 -12 -7 -1 1 -3 -4 -2 3 3 3 2 2 1 1 1 1 2 2 3 3 3 3 3 3 2 3 3 3 2 2 2 2 2 1 1 1 0 -0 -1 -1 -1 -1 -1 -1 -1 -1 -1 -1 -1 -1 -0 -0 -0 0 0 -1 -2 -3 -4
-6 -5 -2 -2 -2 -3 -5 -7 -8 -7 -3 -0 -1 -4 -7 -4 1 4 -1 -12 -15 -12 -6 -5 -4 -3 -3 -7 -10 -9 -5 -5 -6 -6 -3 0 2 2 0 -1 -1 -1 0 1 1 3 4 5 4 3 3 3 4 4 5 4 4 3 3 3 2 1 1 0 -0 -0 -1 -0 -1 -1 -1 -1 -1 -1 -1 -1 -1 -1 -0 0 1 1 1 -1 -2 -3
-0 1 3 2 1 -2 -4 -5 -6 -6 -5 -2 -1 -3 -9 -7 -0 5 5 -4 -8 -9 -5 -8 -10 -8 -2 1 -2 -7 -9 -10 -9 -7 -5 -3 -1 -1 -2 -5 -5 -4 -2 -3 -2 -1 3 3 3 2 3 4 4 4 5 5 5 4 3 3 2 2 1 0 0 0 0 0 0 -0 -0 -0 -1 -1 -1 -1 -1 -1 -1 -0 0 0 0 -0 -1 -1
5 6 6 3 1 -1 -2 -1 -2 -3 -7 -6 -3 -2 -3 -3 0 3 4 -3 -6 -5 1 -5 -11 -13 -7 1 2 -1 -6 -10 -11 -10 -7 -4 -1 -0 -3 -7 -7 -5 -2 -4 -5 -5 0 0 -1 -2 1 3 3 4 5 4 4 3 2 2 1 1 1 1 0 0 1 1 1 1 0 0 -1 -1 -1 -2 -2 -2 -1 -1 -1 -1 -1 -1 -1 -1
11 12 11 8 4 1 -0 0 -0 -2 -6 -3 0 3 2 -0 0 2 4 -3 -7 -5 2 -3 -10 -13 -9 -0 3 2 -3 -7 -10 -11 -11 -7 -1 3 1 -6 -9 -8 -2 -4 -6 -6 -2 -0 -2 -4 -2 0 2 3 3 2 1 1 0 -0 -0 -0 -0 0 0 1 1 1 1 1 1 0 -1 -1 -1 -2 -2 -2 -1 -2 -2 -2 -2 -2 -2 -2
7 7 6 3 0 -2 -4 -1 2 3 3 5 6 5 2 -2 -4 -2 4 -1 -3 -1 4 -0 -7 -13 -16 -4 5 7 0 -5 -9 -10 -10 -9 -3 5 7 -4 -10 -11 -5 -3 -4 -5 -3 -2 -2 -3 -3 -1 0 2 2 1 0 -0 -0 -1 -1 -1 -0 0 1 1 1 1 1 1 1 -0 -1 -2 -2 -2 -2 -2 -1 -2 -2 -3 -2 -2 -1 -1
-5 -3 -2 -4 -7 -10 -10 1 9 13 11 5 1 -1 -1 -2 -3 -2 0 0 2 5 5 4 0 -7 -19 -16 -5 6 7 -1 -7 -10 -10 -11 -5 4 11 2 -8 -13 -10 -4 -3 -3 -2 -3 -3 -3 -2 -1 0 1 0 -0 -0 -1 -1 -1 -1 -1 -0 0 1 1 1 1 1 0 -1 -1 -1 -0 0 -1 -1 -1 -1 -1 -2 -2 -1 -1 -0 -0
-3 -2 -2 -4 -5 -4 3 12 13 9 2 -1 -3 -3 -1 -0 0 1 2 4 7 9 6 6 3 -2 -11 -17 -13 -2 12 5 -2 -9 -14 -16 -11 -1 13 6 -3 -11 -11 -7 -4 -1 -0 -2 -3 -2 -2 -1 -0 0 -1 -1 -1 -1 -1 -1 -1 -1 -0 0 1 1 1 1 0 0 -0 0 1 1 2 1 1 1 1 0 -0 -0 -0 0 0 0
-4 -4 -0 1 4 7 11 5 -1 -5 -3 -1 -0 -0 -2 -4 -1 2 4 5 7 7 5 4 0 -4 -7 -14 -13 -5 12 11 6 -1 -10 -20 -21 -12 8 8 0 -8 -11 -8 -4 -1 0 -2 -2 -1 0 0 0 0 0 0 -0 -0 -0 -0 -0 0 0 0 1 1 1 1 1 0 0 1 1 2 2 2 2 2 2 2 2 1 1 1 1 1
-5 -4 -1 4 7 5 -2 -8 -6 -2 2 3 4 3 -1 -5 -3 -0 -0 0 1 2 4 4 -1 -6 -9 -14 -13 -6 9 15 14 7 -2 -14 -24 -22 -2 6 1 -8 -12 -10 -4 1 1 -2 -2 -1 1 1 2 2 2 1 1 1 1 0 0 0 1 1 1 1 1 0 0 0 0 1 1 1 1 1 1 2 2 3 3 2 2 2 2 2
6 4 3 10 11 5 -8 -12 -9 -3 2 5 6 4 -1 -2 -2 -2 -4 -0 1 2 4 4 -1 -5 -4 -6 -8 -7 6 15 14 8 1 -9 -21 -23 -8 3 1 -7 -14 -12 -5 1 2 -2 -3 -2 -0 1 2 2 3 2 1 1 1 1 1 1 1 1 1 1 1 0 -0 0 1 0 0 -0 -0 -0 0 1 1 2 2 2 2 2 2 2
10 6 3 9 10 6 -4 -8 -8 -5 2 7 7 4 -1 1 -1 -3 -5 2 5 6 6 5 3 2 3 -1 -7 -8 3 11 12 8 4 -6 -20 -25 -7 5 3 -6 -13 -12 -7 -1 1 -3 -4 -4 -1 1 2 2 2 1 1 1 0 1 1 1 1 1 0 0 1 1 0 0 0 -0 -1 -1 -1 -1 -1 -0 1 1 1 1 1 2 2 2
4 0 -2 1 2 1 -2 -5 -7 -6 -1 4 5 3 0 3 3 1 0 10 13 11 7 5 2 0 -2 -7 -10 -9 -1 8 12 12 10 -3 -19 -25 -6 4 2 -5 -13 -10 -6 -3 -3 -4 -5 -4 -2 0 1 2 2 1 1 0 0 0 0 0 0 0 0 0 0 0 0 0 0 -0 -1 -1 -1 -1 -1 -1 -1 0 0 0 1 1 1 2
-2 -4 -5 -4 -1 2 3 -0 -4 -6 -6 -3 -2 -2 -1 3 7 11 16 20 18 12 7 3 -2 -5 -9 -7 -6 -6 -4 6 10 10 6 -4 -14 -18 -8 1 1 -6 -14 -9 -4 -2 -5 -6 -5 -3 -2 -1 0 1 1 1 0 0 0 0 0 0 -0 -0 0 0 0 0 0 0 1 0 0 -0 -1 -1 -1 -1 -1 -1 -1 -1 -0 0 1 1
-5 -6 -7 -4 1 7 11 9 6 2 -1 -1 1 5 9 16 22 25 25 20 14 8 3 1 -2 -7 -11 -6 -5 -7 -7 3 7 7 4 -3 -10 -14 -8 2 2 -3 -12 -11 -6 -2 -3 -6 -6 -4 -2 -1 -0 1 1 0 0 0 0 0 -0 -0 -1 -0 0 0 0 0 0 0 0 0 0 -0 -0 0 -0 -0 -1 -2 -2 -2 -1 -0 1 2
-1 -2 -2 -0 2 4 5 8 9 8 5 7 11 16 22 27 27 25 20 14 10 7 6 2 -3 -7 -7 -4 -7 -10 -10 -2 2 5 7 5 -2 -8 -7 3 5 -0 -10 -11 -7 -2 -2 -6 -7 -5 -3 -2 -1 0 0 -0 -0 -0 -0 -0 -0 -0 -0 -0 0 0 -0 0 0 0 0 -0 -0 -0 -0 -0 -0 -1 -2 -3 -3 -3 -1 0 2 3
6 6 5 2 0 -1 -2 -1 0 0 0 3 8 13 18 18 13 6 0 3 7 9 8 2 -3 -7 -7 -5 -6 -7 -5 -1 1 3 6 7 2 -5 -10 -2 0 -2 -8 -10 -6 -2 -1 -5 -7 -7 -5 -4 -2 -0 -0 -0 -1 -1 -0 -0 -0 -0 -0 0 0 0 0 0 0 0 0 -0 -0 -1 -1 -1 -1 -2 -3 -4 -4 -2 -0 1 1 0
8 7 6 5 3 2 -0 -1 -2 -2 -3 -1 3 9 15 13 7 1 -3 2 6 7 4 1 -2 -5 -7 -7 -7 -7 -4 -4 -5 -3 2 3 -3 -11 -16 -6 -1 -1 -3 -6 -7 -5 -1 -5 -7 -7 -6 -5 -3 -2 -2 -1 -1 -1 -1 -0 -0 0 0 1 1 1 1 1 0 0 -0 -1 -1 -1 -2 -2 -2 -3 -4 -4 -3 -1 1 1 -0 -2
5 5 5 5 6 6 5 3 0 -1 -2 0 5 10 14 12 7 1 -4 -1 1 2 -1 -1 -1 -1 -4 -6 -7 -7 -7 -9 -8 -4 2 4 -3 -12 -13 -4 -0 1 3 -1 -5 -6 -5 -5 -5 -6 -7 -6 -5 -4 -3 -2 -1 -1 -0 0 0 1 1 1 1 1 1 0 0 -0 -1 -1 -1 -2 -2 -2 -2 -3 -3 -3 -2 -0 0 -0 -2 -3
4 7 6 3 4 5 7 5 2 1 1 4 7 9 10 9 6 2 -2 -1 -0 -0 -2 -2 -2 -1 -2 -3 -4 -5 -8 -9 -6 -1 4 7 1 -5 -2 4 5 6 8 7 3 -2 -7 -5 -4 -3 -6 -7 -6 -6 -5 -3 -2 -1 -0 0 0 1 1 1 1 1 0 -0 -0 -1 -1 -1 -2 -2 -2 -2 -2 -2 -2 -2 -1 -0 -1 -2 -3 -3
5 8 5 -0 -0 3 9 12 12 10 7 7 6 5 5 5 4 3 1 0 0 -0 -1 -2 -2 -1 1 3 3 -0 -8 -6 -0 6 11 17 15 12 12 12 9 6 7 10 11 7 -4 -5 -2 -0 -2 -4 -5 -6 -6 -4 -3 -2 -1 -0 -0 0 1 1 0 -0 -0 -0 -0 -1 -1 -1 -1 -2 -2 -2 -2 -2 -2 -1 -1 -0 -1 -2 -2 -2
1 2 -0 -3 -2 1 7 9 9 8 7 5 4 4 4 4 4 3 3 2 1 1 0 -0 -1 -0 1 5 6 4 -3 0 4 10 16 20 17 12 10 8 3 -1 -2 3 9 11 5 -2 -4 -2 -0 -1 -2 -3 -4 -3 -2 -2 -1 -1 -1 -1 0 0 -0 -1 -1 -0 -0 -0 -0 -0 -1 -1 -1 -2 -2 -2 -1 -1 -0 -0 -0 -0 -1 -2
-2 -1 -1 -1 -0 -0 -1 -2 -2 -0 2 3 3 4 4 4 3 3 3 2 2 2 2 1 0 0 1 3 5 4 0 0 2 5 11 11 6 0 -2 -0 -2 -5 -6 -4 1 5 6 -0 -3 -4 -3 -2 -2 -2 -2 -1 -1 0 0 -1 -2 -2 -1 -0 -1 -1 -1 -0 0 0 0 0 0 -0 -0 -1 -1 -1 -0 0 0 1 1 0 -0 -2
0 1 2 2 1 0 -2 -2 -2 -1 0 1 1 1 1 1 1 1 2 2 2 2 2 2 2 3 3 3 1 -3 -7 -6 -2 3 6 5 1 -4 -7 -4 -4 -4 -3 -3 -1 1 1 -1 -1 -1 -3 -4 -3 -2 -2 -1 -0 1 1 -0 -2 -2 -2 -1 -1 -1 -1 -0 0 0 1 1 1 0 0 0 -0 0 0 1 1 1 2 1 1 0
-1 -0 1 2 2 1 -0 0 0 1 1 0 -0 -1 -2 -2 -2 -1 -0 1 1 2 2 3 4 5 5 4 1 -3 -9 -7 -2 3 6 5 2 -2 -3 -3 -1 1 3 1 2 3 1 -2 -1 1 1 -2 -3 -3 -2 -1 -0 0 -0 -1 -2 -2 -2 -1 -1 -1 -1 -1 -0 0 1 1 1 1 1 0 0 0 1 1 1 1 1 1 1 1
-2 -3 -2 0 1 1 1 2 2 2 1 -1 -2 -3 -3 -3 -3 -2 -1 0 1 2 3 4 5 7 8 9 7 3 -4 -6 -2 2 5 5 5 5 5 3 3 5 6 2 2 3 3 -0 -1 1 4 2 -1 -3 -3 -2 -1 -1 -2 -2 -3 -3 -3 -2 -2 -2 -1 -1 -0 0 1 1 1 1 1 1 0 0 0 0 0 0 0 1 1 1
-3 -4 -3 -1 0 1 2 2 1 1 -0 -2 -3 -3 -2 -2 -1 -1 0 1 2 3 4 5 5 5 5 5 4 2 -3 -4 -2 0 3 4 6 10 14 9 7 7 6 3 1 1 3 2 1 1 3 2 1 -1 -1 -1 -0 -0 -1 -2 -3 -4 -4 -4 -3 -2 -1 -1 -0 0 1 1 1 1 1 1 0 -0 -0 -0 0 -0 -0 -0 0 1
-3 -5 -5 -3 -0 2 3 1 0 -0 -1 -2 -2 -2 -1 -0 0 1 1 1 2 2 2 2 1 0 1 1 0 -1 -2 -3 -3 -1 1 3 7 11 14 8 4 2 3 3 3 3 5 5 4 3 1 0 0 1 1 1 0 -0 -1 -1 -2 -3 -5 -4 -3 -2 -1 -0 0 0 1 1 1 1 1 0 -0 -1 -1 -1 -1 -0 -1 -1 -1 0
-3 -4 -5 -3 0 2 2 0 -0 -1 -0 -0 -0 -0 0 1 2 2 2 1 0 -0 -1 -1 -2 -2 -2 -2 -2 -2 -2 -2 -2 -1 1 1 2 3 3 1 -2 -3 -1 2 4 5 6 6 5 4 3 2 1 1 2 2 1 0 0 -0 -2 -3 -4 -3 -2 -1 -0 0 0 0 1 1 1 1 0 0 -1 -1 -2 -2 -1 -1 -1 -2 -2 -2
-3 -3 -3 -0 2 3 3 1 1 1 1 0 0 1 1 1 1 1 1 0 -0 -1 -1 -1 -1 -1 -1 -1 -1 -2 -2 -1 -0 0 1 1 2 2 1 -0 -2 -2 -1 1 3 4 5 4 3 3 4 4 4 3 3 2 2 1 1 -1 -4 -5 -5 -3 -2 -1 -0 0 0 0 0 1 1 1 0 -0 -1 -2 -2 -2 -2 -2 -1 -2 -3 -4
-2 -2 -1 1 2 3 3 3 3 3 3 1 0 -0 -0 0 -1 -2 -2 -2 -1 -1 -0 -0 -1 -1 -0 1 1 1 1 1 1 1 2 2 3 4 3 3 3 3 3 3 3 3 4 4 3 2 2 3 3 3 3 2 2 2 1 -1 -3 -4 -3 -2 -1 -1 0 0 0 1 1 0 0 0 0 -1 -2 -2 -2 -2 -2 -2 -1 -1 -2 -3
-1 -1 -2 -0 1 2 2 3 4 4 2 1 -0 -1 -1 -1 -1 -2 -2 -2 -2 -2 -1 -1 -2 -3 -4 -4 -2 -0 1 1 1 2 2 3 3 4 5 5 5 5 5 4 3 3 3 3 3 2 1 2 3 2 0 0 1 1 1 -0 -1 -1 -2 -1 0 1 1 0 0 1 1 0 -0 -0 -1 -2 -2 -2 -1 -1 -1 -2 -2 -2 -1 -1
-2 -2 -2 -1 -0 1 2 3 3 2 1 0 -1 -1 -1 -0 -0 -1 -1 -2 -2 -2 -2 -2 -2 -2 -3 -5 -5 -4 -2 -0 1 2 2 2 2 3 3 4 4 5 5 5 4 2 2 3 2 1 0 2 3 2 1 0 0 1 1 1 1 0 -3 -3 -2 -0 0 -0 0 0 0 -0 -1 -2 -2 -3 -3 -2 -0 -0 -0 -1 -1 -1 -1 -1
-2 -3 -3 -1 0 2 4 3 1 0 -0 -1 -2 -2 -1 -0 0 -0 -1 -2 -2 -2 -2 -1 -1 -1 -1 -4 -5 -5 -5 -2 0 2 3 3 3 3 3 3 4 5 6 6 4 3 2 1 1 0 1 3 3 2 1 1 1 1 1 1 1 -0 -2 -2 -2 -1 -1 -1 -0 0 0 -1 -2 -3 -3 -3 -2 -1 -1 -1 -1 -1 -1 -0 -0 -1
-1 -1 0 2 3 3 2 1 0 -0 -0 -1 -2 -2 -2 -1 -1 -1 -1 -2 -3 -3 -2 -1 -0 -1 -3 -5 -5 -5 -6 -5 -2 0 3 4 5 5 4 4 4 4 5 5 5 5 4 1 0 0 2 2 2 2 1 1 1 0 -0 0 -0 -1 -1 -0 0 0 -0 -0 0 1 0 -1 -2 -3 -4 -3 -2 -1 -1 -1 -1 -1 -0 0 0 -0
2 3 4 4 3 2 1 1 1 0 -1 -2 -2 -2 -2 -2 -1 -2 -2 -2 -2 -2 -2 -0 1 0 -3 -5 -5 -5 -6 -6 -5 -3 -0 2 4 5 5 4 3 3 3 3 3 4 4 3 2 1 1 1 1 0 0 0 0 -1 -2 -1 -1 -1 -1 -0 1 2 2 1 0 0 -0 -1 -2 -3 -3 -3 -3 -2 -1 -1 -1 -1 -0 0 0 -0
5 6 5 3 2 1 1 1 1 0 -1 -2 -2 -2 -2 -2 -3 -3 -2 0 1 1 0 0 0 -0 -2 -3 -3 -3 -3 -5 -6 -5 -3 -1 1 3 3 3 3 2 1 1 1 1 1 2 3 3 3 2 1 -0 -1 -0 -1 -2 -2 -1 -1 -1 -2 -1 0 1 1 0 -0 -0 -1 -2 -2 -2 -2 -3 -3 -3 -2 -0 0 0 0 0 -0 -1
9 7 3 2 1 1 1 1 0 -0 -1 -2 -2 -2 -2 -3 -3 -2 0 2 3 3 1 0 -0 -1 -2 -2 -1 -0 0 -1 -3 -3 -3 -3 -1 0 1 2 1 1 1 1 1 1 1 2 2 3 4 3 2 0 -1 -1 -1 -1 -0 0 0 -1 -3 -2 -1 0 -0 -0 -1 -1 -1 -2 -2 -2 -3 -4 -4 -3 -1 0 1 1 1 1 -0 -1
8 4 1 1 1 0 -1 -1 -1 -1 -1 -2 -2 -3 -4 -3 -2 1 3 2 2 1 0 -0 -1 -1 -2 -2 -2 -0 0 0 -1 -2 -2 -3 -2 -2 -1 -0 0 0 -0 -0 -0 0 1 1 2 3 3 3 3 1 -0 -0 0 1 2 1 0 -0 -2 -1 -1 -0 -1 -1 -1 -1 -1 -1 -1 -2 -3 -4 -5 -4 -1 1 2 2 2 1 0 -1
2 1 2 2 1 -0 -1 -1 -1 -1 -1 -1 -2 -3 -4 -3 -1 1 2 1 1 0 0 0 -0 -1 -2 -3 -2 -1 -0 -1 -2 -3 -3 -3 -3 -2 -2 -2 -1 -1 -2 -2 -2 -2 -2 -2 -2 0 2 3 3 3 1 1 2 2 2 1 1 0 -1 -0 -0 -0 -1 -1 -1 -1 -1 -1 -1 -1 -2 -4 -4 -4 -2 1 2 2 2 1 0 -1
1 1 2 1 0 -0 -1 -1 -1 -1 -1 -1 -2 -2 -2 0 1 2 1 1 1 0 0 0 -0 -1 -2 -2 -2 -1 -0 -1 -2 -4 -4 -2 -1 -2 -2 -2 -1 -1 -1 -1 -2 -2 -2 -4 -5 -4 -2 2 4 4 3 3 2 2 1 1 1 1 0 0 0 0 -1 -1 -1 -1 -0 -0 -0 -1 -2 -3 -4 -3 -2 1 2 2 1 1 0 -1
Height
1443 1441 1440 1440 1439 1437 1435 1436 1435 1434 1432 1432 1432 1431 1430 1429 1429 1428 1428 1427 1426 1425 1424 1424 1423 1422 1421 1421 1420 1420 1419 1419 1418 1418 1417 1416 1416 1415 1414 1414 1414 1413 1413 1413 1412 1412 1412 1412 1412 1411 1411 1411 1411 1411 1411 1411 1411 1411 1411 1411 1411 1411 1412 1412 1412 1412 1412 1413 1413 1413 1413 1414 1414 1414 1414 1414 1414 1414 1414 1413 1413 1414 1414 1414 1414 1414
1441 1440 1439 1438 1438 1436 1434 1434 1434 1433 1431 1430 1429 1429 1428 1427 1427 1426 1425 1425 1424 1423 1422 1421 1420 1419 1419 1418 1418 1417 1417 1416 1416 1415 1415 1414 1414 1413 1413 1412 1412 1411 1411 1411 1410 1410 1410 1410 1409 1409 1409 1409 1409 1409 1409 1409 1409 1409 1409 1409 1409 1409 1409 1409 1409 1409 1409 1410 1410 1410 1410 1411 1411 1411 1411 1412 1412 1412 1411 1411 1410 1411 1411 1411 1411 1411
1440 1438 1437 1437 1436 1435 1433 1432 1432 1431 1430 1429 1428 1427 1426 1425 1424 1424 1423 1422 1421 1421 1420 1419 1418 1417 1416 1416 1415 1415 1414 1414 1413 1413 1412 1412 1411 1411 1410 1410 1410 1409 1409 1409 1409 1408 1408 1408 1408 1408 1407 1407 1407 1407 1407 1407 1407 1407 1407 1407 1407 1407 1407 1407 1407 1407 1407 1407 1407 1407 1407 1408 1408 1408 1408 1409 1409 1409 1408 1408 1408 1408 1408 1408 1408 1408
1439 1438 1436 1436 1435 1434 1432 1431 1430 1429 1429 1428 1426 1425 1424 1423 1422 1421 1420 1419 1419 1418 1417 1417 1416 1415 1414 1413 1413 1412 1412 1411 1411 1410 1410 1409 1409 1409 1409 1408 1408 1407 1407 1407 1406 1406 1406 1406 1405 1405 1405 1405 1405 1405 1405 1405 1404 1404 1404 1404 1404 1404 1404 1404 1404 1404 1404 1404 1404 1404 1404 1404 1405 1405 1405 1405 1406 1406 1405 1405 1405 1405 1405 1405 1405 1405
1438 1437 1435 1435 1433 1432 1430 1430 1429 1428 1427 1426 1425 1424 1423 1422 1420 1419 1418 1418 1417 1416 1415 1414 1414 1413 1412 1411 1410 1410 1410 1409 1409 1408 1408 1408 1407 1407 1406 1406 1406 1405 1405 1405 1404 1404 1404 1404 1403 1403 1403 1403 1403 1402 1402 1402 1402 1402 1402 1402 1402 1402 1402 1402 1402 1402 1402 1402 1402 1402 1402 1402 1402 1402 1402 1403 1403 1403 1403 1403 1403 1403 1403 1403 1403 1403
1436 1436 1434 1434 1432 1430 1429 1428 1427 1426 1425 1424 1423 1422 1421 1420 1419 1418 1417 1416 1415 1414 1413 1412 1412 1411 1410 1409 1409 1408 1408 1407 1407 1406 1406 1405 1405 1405 1404 1404 1404 1404 1403 1403 1403 1402 1402 1402 1401 1401 1401 1400 1400 1400 1400 1400 1400 1400 1399 1400 1400 1399 1399 1399 1399 1399 1399 1399 1399 1399 1399 1399 1399 1400 1400 1400 1400 1400 1400 1400 1400 1401 1401 1401 1401 1400
1434 1434 1434 1432 1430 1429 1428 1426 1426 1425 1424 1423 1422 1420 1419 1419 1418 1417 1416 1414 1414 1413 1411 1410 1410 1409 1408 1407 1407 1406 1406 1405 1405 1404 1404 1404 1403 1403 1402 1402 1402 1402 1401 1401 1401 1401 1400 1400 1399 1399 1399 1399 1398 1398 1398 1398 1398 1398 1398 1398 1398 1398 1397 1397 1397 1397 1397 1397 1397 1397 1397 1397 1397 1397 1397 1397 1398 1398 1398 1398 1398 1398 1399 1399 1398 1398
1432 1432 1432 1431 1429 1427 1426 1425 1425 1424 1423 1422 1420 1419 1418 1417 1416 1415 1414 1413 1412 1411 1410 1409 1408 1407 1406 1406 1405 1405 1404 1403 1403 1402 1402 1401 1401 1400 1400 1400 1400 1399 1399 1399 1399 1399 1398 1398 1398 1397 1397 1396 1396 1396 1396 1396 1396 1396 1396 1396 1395 1395 1395 1395 1395 1395 1395 1395 1395 1394 1394 1394 1394 1394 1395 1395 1395 1395 1395 1395 1396 1396 1396 1396 1396 1396
1432 1430 1429 1428 1427 1426 1424 1423 1423 1423 1422 1421 1420 1419 1417 1415 1414 1413 1412 1411 1410 1410 1409 1408 1406 1405 1404 1404 1404 1403 1403 1402 1401 1400 1400 1399 1399 1399 1398 1398 1398 1398 1397 1397 1397 1397 1396 1396 1396 1395 1395 1394 1394 1394 1394 1394 1394 1394 1394 1393 1393 1393 1393 1393 1393 1392 1392 1392 1392 1392 1392 1392 1392 1392 1392 1392 1392 1392 1393 1393 1393 1393 1393 1393 1393 1393
1430 1428 1426 1425 1425 1424 1423 1421 1420 1420 1421 1420 1419 1417 1416 1414 1413 1411 1410 1409 1408 1408 1407 1406 1405 1404 1403 1402 1402 1402 1401 1400 1399 1399 1399 1398 1397 1397 1397 1396 1396 1396 1396 1395 1395 1395 1395 1394 1394 1394 1393 1393 1393 1392 1392 1392 1392 1391 1391 1391 1391 1390 1390 1390 1390 1389 1389 1389 1390 1390 1390 1389 1389 1389 1389 1389 1390 1390 1390 1390 1390 1390 1391 1391 1391 1391
1427 1426 1425 1423 1422 1422 1422 1420 1419 1418 1419 1418 1416 1415 1414 1414 1413 1411 1409 1407 1406 1405 1405 1405 1404 1403 1401 1400 1399 1399 1399 1398 1398 1397 1397 1396 1396 1395 1395 1395 1394 1394 1394 1394 1394 1393 1393 1393 1393 1392 1392 1391 1391 1391 1391 1390 1390 1390 1390 1389 1389 1389 1388 1388 1387 1387 1387 1387 1387 1387 1387 1387 1387 1387 1387 1387 1387 1388 1388 1388 1388 1388 1388 1388 1388 1388
1425 1424 1423 1421 1420 1420 1419 1419 1418 1417 1417 1416 1414 1413 1412 1412 1412 1410 1409 1406 1405 1404 1403 1403 1402 1401 1400 1399 1398 1397 1397 1396 1396 1395 1395 1394 1394 1394 1393 1393 1392 1392 1392 1391 1391 1391 1391 1391 1391 1390 1390 1390 1390 1389 1389 1389 1389 1389 1388 1388 1387 1387 1386 1386 1385 1385 1385 1384 1384 1384 1384 1384 1384 1384 1384 1384 1385 1385 1385 1385 1386 1386 1385 1385 1385 1385
1423 1422 1421 1420 1419 1419 1418 1417 1416 1416 1415 1414 1413 1412 1410 1410 1410 1409 1408 1406 1404 1403 1402 1401 1399 1399 1398 1398 1397 1396 1395 1394 1394 1393 1393 1392 1391 1391 1391 1390 1389 1389 1389 1389 1388 1388 1389 1388 1388 1388 1388 1388 1388 1388 1388 1387 1387 1387 1387 1386 1386 1385 1384 1384 1384 1383 1383 1383 1382 1382 1382 1382 1382 1382 1382 1382 1382 1382 1383 1383 1383 1383 1383 1383 1383 1383
1421 1420 1419 1419 1418 1417 1417 1416 1415 1414 1413 1412 1411 1410 1409 1409 1409 1408 1406 1404 1403 1402 1401 1400 1398 1396 1395 1395 1395 1395 1394 1393 1392 1391 1390 1389 1389 1389 1389 1388 1387 1387 1386 1386 1386 1386 1386 1386 1385 1385 1385 1385 1385 1385 1385 1385 1385 1384 1384 1384 1384 1383 1383 1382 1382 1381 1381 1380 1380 1380 1380 1379 1379 1379 1379 1379 1380 1380 1380 1380 1381 1381 1381 1381 1381 1380
1421 1420 1419 1418 1417 1416 1416 1415 1414 1413 1411 1410 1410 1409 1409 1408 1407 1406 1405 1403 1401 1400 1399 1398 1396 1395 1394 1393 1394 1394 1393 1392 1390 1389 1388 1387 1387 1387 1387 1386 1385 1384 1384 1384 1383 1383 1383 1383 1383 1383 1383 1383 1383 1383 1383 1382 1382 1382 1382 1381 1381 1381 1380 1380 1379 1379 1379 1379 1378 1378 1378 1378 1377 1377 1378 1377 1378 1378 1378 1378 1378 1378 1378 1378 1378 1378
1420 1420 1418 1417 1416 1415 1414 1414 1413 1411 1409 1409 1409 1409 1408 1407 1405 1404 1404 1402 1400 1399 1398 1397 1395 1394 1392 1392 1392 1392 1392 1391 1389 1388 1386 1385 1385 1385 1386 1385 1384 1383 1382 1382 1381 1381 1381 1381 1381 1381 1381 1381 1381 1380 1380 1380 1379 1379 1379 1379 1379 1378 1378 1378 1377 1377 1377 1376 1376 1376 1376 1376 1376 1375 1375 1375 1375 1375 1375 1375 1375 1375 1376 1376 1376 1376
1419 1418 1416 1415 1414 1412 1412 1412 1411 1410 1409 1408 1408 1407 1406 1405 1404 1403 1402 1400 1399 1398 1397 1396 1395 1394 1391 1389 1389 1390 1391 1390 1389 1387 1385 1383 1383 1383 1384 1384 1382 1381 1380 1379 1379 1379 1379 1379 1379 1379 1379 1379 1379 1379 1378 1378 1377 1377 1377 1377 1376 1376 1376 1375 1375 1375 1374 1374 1374 1374 1374 1374 1374 1374 1374 1374 1373 1373 1373 1373 1373 1373 1373 1373 1373 1373
1416 1415 1414 1413 1412 1411 1410 1410 1409 1409 1408 1407 1405 1404 1404 1403 1402 1401 1400 1399 1398 1397 1395 1395 1394 1393 1391 1389 1388 1389 1389 1389 1388 1386 1384 1382 1381 1381 1382 1382 1380 1379 1378 1377 1377 1377 1377 1377 1377 1377 1377 1377 1377 1376 1376 1376 1375 1375 1375 1374 1374 1374 1374 1373 1373 1373 1373 1372 1372 1372 1372 1372 1372 1372 1372 1372 1371 1371 1371 1371 1371 1371 1371 1371 1371 1371
1414 1414 1413 1411 1410 1409 1409 1408 1407 1407 1406 1404 1403 1402 1401 1400 1399 1399 1398 1397 1396 1395 1394 1393 1392 1391 1390 1388 1387 1387 1388 1388 1387 1385 1383 1381 1379 1379 1379 1379 1379 1377 1376 1375 1375 1375 1375 1375 1375 1375 1375 1375 1375 1374 1374 1374 1373 1373 1373 1372 1372 1372 1371 1371 1371 1371 1370 1370 1370 1370 1370 1370 1370 1370 1370 1370 1369 1369 1369 1369 1369 1369 1369 1369 1369 1369
1411 1411 1410 1409 1409 1407 1406 1406 1405 1404 1404 1402 1401 1400 1399 1398 1397 1396 1395 1395 1394 1393 1392 1391 1390 1389 1388 1387 1385 1385 1386 1386 1386 1384 1382 1380 1378 1376 1377 1377 1376 1374 1373 1373 1373 1373 1373 1373 1373 1373 1373 1373 1373 1372 1372 1371 1371 1371 1370 1370 1370 1370 1369 1369 1369 1369 1368 1368 1368 1368 1368 1368 1368 1368 1368 1368 1368 1367 1367 1367 1367 1367 1367 1367 1366 1366
1409 1408 1407 1407 1406 1405 1404 1403 1403 1402 1401 1400 1399 1399 1397 1396 1395 1394 1393 1392 1391 1390 1389 1389 1388 1387 1387 1386 1385 1384 1385 1385 1384 1383 1381 1379 1376 1374 1374 1374 1374 1372 1371 1370 1370 1371 1371 1371 1371 1370 1370 1370 1370 1370 1369 1369 1369 1368 1368 1368 1368 1368 1367 1367 1367 1367 1366 1366 1366 1366 1366 1366 1365 1365 1365 1365 1365 1365 1365 1365 1365 1365 1364 1364 1364 1364
1407 1405 1404 1404 1404 1403 1401 1400 1400 1400 1399 1399 1398 1396 1395 1394 1393 1391 1390 1389 1388 1388 1387 1387 1386 1386 1386 1385 1384 1383 1383 1383 1382 1381 1379 1377 1374 1372 1372 1373 1372 1370 1369 1367 1368 1368 1369 1369 1368 1368 1368 1368 1368 1367 1367 1367 1366 1366 1366 1366 1366 1366 1365 1365 1365 1365 1364 1364 1364 1364 1364 1363 1363 1363 1363 1363 1363 1363 1363 1363 1363 1362 1362 1362 1362 1361
1404 1403 1402 1402 1401 1400 1399 1398 1397 1397 1397 1396 1395 1394 1393 1392 1390 1388 1387 1386 1386 1385 1385 1385 1385 1384 1384 1382 1381 1380 1380 1380 1380 1379 1378 1375 1371 1369 1370 1371 1370 1369 1366 1365 1366 1366 1366 1366 1366 1365 1365 1365 1365 1365 1365 1364 1364 1364 1364 1364 1364 1364 1364 1364 1363 1363 1363 1363 1362 1362 1362 1361 1361 1361 1361 1361 1360 1360 1361 1360 1360 1360 1360 1359 1359 1359
1402 1400 1399 1399 1399 1398 1397 1396 1395 1395 1394 1394 1393 1391 1390 1389 1387 1385 1384 1384 1384 1384 1384 1383 1383 1381 1380 1379 1379 1378 1378 1378 1378 1377 1376 1373 1369 1368 1368 1369 1368 1367 1364 1364 1364 1364 1364 1364 1363 1363 1363 1363 1363 1363 1363 1363 1362 1362 1362 1362 1362 1362 1362 1362 1362 1361 1361 1361 1360 1360 1360 1359 1359 1359 1359 1359 1359 1358 1358 1358 1358 1358 1358 1357 1357 1357
1399 1398 1398 1397 1397 1396 1395 1394 1394 1394 1393 1392 1391 1390 1389 1387 1385 1383 1383 1383 1383 1382 1382 1381 1380 1379 1377 1377 1376 1375 1375 1375 1375 1375 1373 1371 1368 1366 1366 1367 1367 1365 1363 1362 1363 1363 1362 1361 1361 1361 1361 1361 1361 1361 1361 1361 1360 1360 1360 1360 1360 1360 1360 1360 1360 1359 1359 1359 1359 1359 1358 1358 1358 1357 1357 1357 1356 1356 1356 1356 1355 1355 1355 1355 1355 1354
1398 1397 1396 1396 1395 1395 1394 1394 1393 1392 1391 1391 1390 1389 1388 1385 1384 1382 1381 1381 1380 1380 1379 1378 1377 1376 1375 1374 1374 1373 1373 1373 1373 1373 1372 1370 1367 1365 1364 1365 1365 1364 1362 1361 1361 1361 1360 1359 1359 1359 1359 1359 1359 1359 1359 1359 1359 1359 1359 1359 1359 1359 1359 1358 1358 1358 1357 1357 1357 1357 1356 1356 1356 1355 1355 1355 1354 1354 1354 1354 1354 1353 1353 1353 1352 1352
1396 1395 1394 1394 1394 1393 1392 1392 1391 1390 1389 1388 1388 1387 1385 1383 1381 1379 1379 1379 1378 1378 1377 1376 1374 1374 1373 1372 1372 1371 1371 1372 1371 1371 1371 1369 1367 1364 1363 1364 1364 1363 1361 1359 1359 1359 1359 1358 1357 1357 1358 1358 1358 1358 1358 1357 1357 1357 1357 1357 1357 1357 1357 1357 1357 1356 1356 1356 1355 1355 1355 1354 1354 1354 1353 1353 1353 1353 1352 1352 1352 1351 1351 1351 1350 1349
1393 1393 1392 1392 1391 1390 1389 1389 1388 1387 1386 1385 1385 1384 1383 1381 1379 1378 1377 1377 1376 1376 1374 1374 1373 1372 1371 1370 1369 1369 1369 1369 1369 1369 1369 1368 1365 1363 1361 1361 1361 1361 1359 1358 1357 1357 1357 1356 1356 1356 1356 1356 1356 1356 1356 1356 1356 1356 1356 1356 1356 1356 1355 1355 1355 1355 1354 1354 1354 1354 1353 1353 1352 1352 1351 1351 1351 1351 1350 1350 1350 1349 1349 1349 1348 1347
1390 1390 1390 1389 1389 1388 1387 1386 1385 1384 1383 1383 1382 1382 1380 1379 1377 1376 1375 1375 1374 1374 1373 1372 1371 1370 1369 1368 1367 1366 1366 1366 1366 1366 1366 1365 1362 1360 1359 1359 1359 1359 1358 1357 1355 1354 1354 1354 1354 1354 1354 1354 1354 1354 1354 1354 1354 1354 1354 1354 1354 1354 1354 1354 1354 1354 1353 1353 1352 1352 1351 1351 1350 1350 1349 1349 1349 1349 1348 1348 1348 1348 1347 1346 1345 1344
1387 1387 1387 1387 1386 1385 1384 1383 1382 1381 1380 1380 1380 1379 1378 1377 1376 1375 1374 1374 1373 1372 1370 1369 1369 1368 1368 1367 1366 1364 1364 1364 1364 1364 1364 1363 1360 1358 1358 1358 1358 1358 1358 1357 1355 1353 1352 1352 1352 1352 1352 1353 1353 1353 1353 1353 1353 1353 1353 1353 1353 1353 1353 1352 1352 1352 1351 1351 1350 1350 1349 1349 1349 1348 1348 1347 1347 1347 1346 1346 1346 1345 1344 1344 1343 1342
1385 1385 1385 1384 1384 1383 1381 1380 1379 1378 1378 1378 1377 1377 1376 1375 1374 1373 1372 1372 1371 1370 1369 1368 1367 1367 1367 1367 1366 1364 1362 1362 1363 1364 1364 1362 1360 1358 1358 1358 1357 1357 1358 1357 1356 1354 1351 1351 1351 1351 1351 1351 1351 1351 1351 1351 1352 1352 1352 1351 1351 1351 1351 1351 1350 1350 1349 1349 1349 1349 1348 1347 1347 1346 1346 1346 1345 1345 1345 1344 1344 1344 1343 1342 1341 1340
1384 1383 1382 1382 1381 1380 1379 1378 1377 1376 1375 1375 1375 1374 1374 1373 1372 1371 1370 1370 1369 1368 1368 1367 1366 1366 1365 1365 1364 1363 1361 1362 1362 1363 1362 1361 1359 1357 1357 1356 1356 1355 1356 1356 1356 1354 1352 1350 1349 1350 1350 1350 1350 1349 1350 1350 1350 1350 1350 1350 1349 1349 1349 1349 1349 1349 1348 1348 1347 1347 1347 1346 1345 1345 1344 1344 1344 1343 1343 1343 1342 1342 1341 1340 1339 1339
1381 1380 1380 1379 1379 1378 1377 1376 1375 1374 1373 1373 1373 1372 1372 1371 1370 1369 1369 1368 1367 1366 1366 1365 1364 1364 1364 1363 1362 1361 1360 1359 1360 1360 1360 1359 1357 1355 1355 1355 1354 1354 1354 1354 1354 1353 1351 1349 1349 1348 1348 1348 1348 1348 1348 1348 1348 1348 1348 1348 1348 1348 1348 1348 1347 1347 1347 1346 1346 1345 1345 1344 1344 1344 1343 1343 1342 1342 1341 1341 1341 1340 1340 1339 1338 1337
1379 1378 1377 1376 1376 1375 1375 1374 1374 1373 1372 1371 1370 1370 1369 1369 1368 1367 1366 1366 1365 1364 1364 1364 1363 1363 1362 1361 1359 1358 1357 1357 1357 1358 1358 1357 1356 1354 1353 1353 1353 1353 1352 1352 1351 1350 1349 1348 1347 1347 1346 1346 1346 1346 1346 1347 1347 1347 1347 1346 1346 1346 1346 1346 1346 1345 1345 1345 1344 1344 1344 1343 1343 1342 1341 1341 1341 1340 1340 1339 1339 1339 1339 1338 1337 1336
1375 1374 1374 1374 1373 1373 1373 1372 1372 1371 1370 1369 1369 1368 1367 1366 1366 1365 1364 1364 1363 1363 1362 1362 1362 1361 1360 1359 1357 1355 1354 1354 1355 1355 1356 1355 1354 1353 1352 1351 1351 1351 1351 1350 1349 1349 1348 1346 1346 1345 1345 1344 1344 1344 1344 1344 1345 1345 1345 1345 1345 1345 1345 1344 1344 1344 1343 1343 1342 1342 1342 1341 1341 1340 1340 1339 1339 1339 1339 1338 1338 1338 1337 1337 1336 1335
1372 1371 1371 1371 1371 1370 1370 1370 1370 1369 1369 1368 1367 1366 1365 1364 1364 1363 1362 1362 1361 1361 1360 1360 1359 1359 1358 1357 1356 1354 1353 1352 1352 1353 1353 1353 1353 1352 1351 1350 1349 1349 1349 1348 1348 1347 1346 1345 1344 1344 1344 1343 1342 1342 1342 1343 1343 1343 1343 1343 1343 1343 1343 1343 1343 1342 1341 1341 1340 1340 1340 1339 1339 1339 1338 1338 1338 1337 1337 1337 1336 1336 1335 1335 1334 1334
1369 1368 1368 1368 1368 1368 1368 1368 1368 1367 1366 1366 1365 1364 1363 1363 1362 1361 1360 1360 1359 1359 1359 1358 1357 1356 1356 1355 1354 1353 1351 1350 1350 1350 1350 1351 1351 1350 1349 1348 1347 1347 1347 1346 1346 1345 1344 1344 1343 1342 1342 1341 1341 1341 1341 1341 1341 1341 1341 1341 1341 1341 1341 1341 1341 1340 1340 1339 1339 1339 1338 1338 1337 1337 1337 1336 1336 1336 1335 1335 1335 1334 1334 1334 1333 1332
1367 1366 1366 1366 1366 1366 1366 1366 1365 1365 1364 1364 1363 1362 1361 1360 1360 1359 1359 1358 1357 1357 1356 1355 1354 1354 1353 1353 1352 1351 1349 1349 1348 1348 1348 1348 1349 1349 1347 1346 1344 1344 1345 1344 1344 1344 1343 1342 1341 1341 1340 1340 1339 1339 1340 1339 1339 1339 1339 1339 1339 1339 1339 1339 1339 1339 1338 1338 1337 1337 1336 1336 1336 1335 1335 1334 1334 1334 1334 1334 1333 1333 1333 1332 1332 1331
1365 1364 1364 1364 1364 1364 1364 1364 1364 1363 1362 1362 1361 1360 1359 1359 1358 1357 1356 1356 1355 1354 1354 1353 1352 1351 1351 1350 1349 1349 1348 1347 1346 1346 1345 1345 1345 1345 1344 1343 1342 1342 1342 1343 1342 1342 1341 1340 1340 1339 1339 1338 1338 1338 1338 1338 1338 1338 1338 1338 1338 1338 1338 1338 1338 1337 1337 1336 1336 1335 1335 1335 1334 1334 1334 1333 1333 1333 1332 1332 1332 1332 1331 1331 1330 1329
1364 1363 1363 1363 1363 1363 1362 1362 1362 1361 1360 1360 1359 1359 1358 1357 1356 1355 1354 1354 1353 1352 1351 1351 1350 1349 1348 1347 1347 1346 1345 1344 1344 1343 1343 1343 1342 1342 1342 1341 1341 1340 1340 1340 1340 1340 1339 1339 1338 1337 1337 1337 1337 1337 1337 1337 1337 1337 1337 1337 1336 1336 1336 1337 1336 1336 1335 1335 1334 1334 1334 1333 1333 1333 1332 1332 1332 1331 1331 1331 1330 1330 1330 1329 1329 1328
1362 1361 1361 1361 1361 1361 1361 1360 1360 1359 1359 1358 1358 1357 1356 1355 1354 1353 1352 1351 1351 1350 1349 1349 1348 1347 1346 1345 1344 1344 1343 1343 1342 1341 1341 1340 1340 1340 1340 1340 1339 1339 1339 1339 1338 1338 1337 1337 1336 1336 1336 1336 1336 1336 1335 1335 1336 1336 1336 1335 1335 1335 1335 1335 1335 1334 1334 1334 1333 1333 1332 1332 1332 1331 1331 1331 1330 1330 1330 1330 1329 1329 1329 1328 1328 1327
1360 1360 1359 1359 1359 1359 1359 1359 1358 1358 1357 1357 1356 1355 1354 1353 1352 1351 1350 1349 1349 1348 1347 1347 1345 1344 1343 1342 1342 1342 1341 1341 1340 1339 1339 1339 1339 1339 1339 1338 1338 1338 1337 1337 1336 1336 1335 1335 1335 1334 1334 1334 1334 1334 1334 1334 1334 1334 1334 1334 1334 1334 1334 1334 1334 1333 1333 1332 1332 1331 1331 1330 1330 1330 1330 1329 1329 1329 1329 1329 1329 1328 1328 1327 1327 1326
1359 1358 1358 1358 1358 1357 1357 1357 1357 1356 1356 1355 1354 1353 1353 1352 1351 1350 1349 1348 1347 1346 1345 1344 1344 1342 1341 1340 1339 1339 1339 1339 1338 1338 1337 1337 1337 1337 1337 1336 1336 1336 1336 1335 1334 1334 1334 1333 1333 1333 1333 1333 1333 1333 1332 1332 1333 1333 1333 1333 1333 1333 1332 1332 1332 1332 1331 1331 1330 1330 1329 1329 1329 1328 1328 1328 1328 1328 1328 1328 1328 1327 1327 1326 1326 1325
1357 1357 1356 1356 1356 1356 1356 1355 1355 1354 1354 1353 1352 1351 1351 1350 1349 1349 1348 1346 1345 1345 1344 1343 1342 1341 1340 1339 1338 1337 1337 1337 1337 1336 1336 1336 1335 1335 1335 1335 1334 1334 1334 1334 1333 1332 1332 1332 1331 1331 1331 1331 1331 1331 1331 1331 1331 1331 1331 1331 1332 1331 1331 1330 1330 1330 1330 1329 1329 1329 1328 1328 1327 1327 1327 1327 1327 1327 1327 1327 1326 1326 1326 1325 1325 1324
1356 1355 1355 1355 1354 1354 1354 1354 1353 1353 1352 1351 1350 1349 1349 1349 1348 1347 1346 1345 1344 1344 1343 1342 1341 1340 1339 1338 1337 1336 1336 1335 1335 1335 1335 1334 1334 1334 1334 1333 1333 1333 1332 1332 1332 1331 1331 1330 1330 1329 1330 1330 1329 1329 1329 1329 1329 1329 1330 1330 1330 1330 1329 1329 1329 1329 1329 1328 1328 1328 1327 1326 1326 1325 1325 1325 1326 1326 1326 1325 1325 1325 1325 1325 1324 1324
1354 1354 1354 1353 1353 1353 1352 1352 1351 1351 1350 1349 1349 1348 1348 1347 1347 1346 1345 1344 1343 1343 1342 1341 1341 1340 1338 1337 1336 1335 1334 1334 1334 1333 1333 1333 1333 1333 1332 1332 1331 1331 1331 1330 1330 1329 1329 1329 1329 1328 1328 1328 1328 1328 1328 1328 1328 1328 1328 1328 1328 1328 1328 1328 1328 1328 1328 1327 1327 1326 1326 1325 1325 1324 1324 1324 1324 1324 1324 1324 1324 1324 1324 1324 1324 1324
1353 1353 1352 1352 1351 1351 1351 1350 1349 1349 1348 1348 1347 1347 1346 1346 1345 1344 1344 1343 1343 1342 1341 1340 1339 1339 1337 1336 1335 1334 1334 1333 1332 1332 1332 1332 1331 1331 1331 1330 1330 1329 1329 1329 1329 1328 1328 1328 1328 1327 1327 1327 1326 1326 1326 1326 1326 1326 1326 1327 1327 1327 1327 1327 1327 1327 1326 1326 1325 1325 1324 1324 1324 1323 1323 1323 1323 1324 1324 1324 1324 1324 1324 1324 1323 1323
1352 1351 1351 1350 1350 1349 1349 1349 1348 1348 1347 1346 1345 1345 1344 1344 1344 1343 1343 1342 1341 1340 1339 1339 1338 1337 1336 1335 1334 1334 1333 1333 1332 1331 1331 1330 1330 1330 1329 1329 1329 1328 1328 1327 1327 1327 1326 1326 1326 1326 1326 1326 1325 1325 1324 1325 1325 1325 1325 1325 1325 1325 1325 1325 1325 1325 1325 1324 1324 1324 1323 1323 1323 1322 1322 1322 1322 1322 1323 1323 1323 1323 1323 1323 1323 1322
1350 1350 1349 1349 1348 1348 1347 1347 1347 1346 1345 1344 1344 1343 1343 1343 1342 1342 1342 1341 1340 1339 1338 1337 1336 1335 1335 1334 1333 1333 1333 1332 1332 1331 1330 1330 1329 1329 1328 1328 1327 1327 1326 1326 1325 1325 1325 1325 1325 1325 1324 1324 1324 1324 1324 1324 1324 1324 1324 1324 1324 1324 1324 1324 1324 1324 1324 1323 1323 1323 1322 1322 1322 1321 1321 1321 1321 1321 1322 1322 1322 1322 1323 1322 1322 1322
1349 1348 1348 1347 1347 1346 1346 1345 1345 1344 1344 1343 1342 1342 1341 1341 1341 1340 1340 1339 1338 1337 1336 1336 1335 1334 1334 1333 1332 1332 1332 1331 1331 1330 1329 1329 1329 1328 1327 1327 1326 1325 1325 1324 1324 1324 1324 1323 1323 1323 1323 1323 1323 1323 1323 1323 1323 1323 1323 1323 1323 1323 1323 1323 1323 1323 1323 1322 1322 1322 1322 1321 1321 1321 1320 1320 1320 1320 1321 1321 1322 1322 1322 1322 1322 1321
1347 1347 1346 1346 1345 1345 1344 1344 1343 1343 1342 1342 1341 1340 1340 1340 1339 1339 1338 1337 1337 1336 1335 1334 1334 1333 1333 1332 1331 1331 1331 1331 1330 1329 1329 1329 1328 1328 1327 1326 1325 1325 1324 1324 1323 1323 1322 1322 1321 1321 1321 1322 1322 1322 1322 1322 1322 1322 1322 1322 1322 1322 1322 1322 1322 1322 1322 1321 1321 1321 1321 1321 1320 1320 1320 1320 1320 1320 1320 1321 1321 1321 1321 1321 1321 1321